Flag for Canada Weather past 2 weeks in Red Deer, Alberta, Canada

Now
50 °F

Mostly cloudy.


Feels Like: 46 °F
Forecast: 43 / 60 °F
Wind: 12 mph from East

Location: Red Deer

Current Time: Aug 22, 2014 at 10:30:10 AM

Latest Report: Aug 22, 2014 at 10:00 AM


Visibility: 15 mi

Pressure: 30.36 "Hg

Humidity: 76%

Dew point: 43 °F

Location of Red DeerLocation

Historic Weather in Red Deer — Graph

°F

Red Deer temperature yesterday

Maximum temperature yesterday: 59 °F (at 2:00 PM)
Minimum temperature yesterday: 46 °F (at 3:00 AM)
Average temperature yesterday: 52 °F

Past Weeks' High & Low Weather Summary

 TemperatureHumidityPressure
High82 °F (Aug 12, 5:00 PM)100% (Aug 8, 12:00 AM)30.35 "Hg (Aug 8, 12:00 AM)
Low43 °F (Aug 9, 5:00 AM)34% (Aug 18, 3:00 PM)29.70 "Hg (Aug 19, 4:00 AM)
Average62 °F77%30.02 "Hg
* Reported Aug 7 9:00 AM — Aug 22 9:00 AM, Red Deer, Weather by CustomWeather, © 2014

Note: Actual official high and low records may vary slightly from our data, if they occured in-between our weather recording intervals... More about our weather records

Advertising

Red Deer weather history for previous 24 hours

 ConditionsComfort  
Time TempWeatherWind HumidityBarometerVisibility
9:00 AM
Aug 22
48 °FMore clouds than sun.9 mph87%30.35 "Hg15 mi
8:00 AM48 °FMore clouds than sun.7 mph82%30.34 "Hg15 mi
7:00 AM46 °FOvercast.6 mph93%30.34 "Hg15 mi
6:00 AM48 °FMostly cloudy.8 mph82%30.33 "Hg15 mi
5:00 AM48 °FOvercast.6 mph87%30.31 "Hg15 mi
4:00 AM48 °FOvercast.8 mph87%30.30 "Hg15 mi
3:00 AM50 °FOvercast.9 mph82%30.30 "Hg15 mi
2:00 AM50 °FOvercast.6 mph82%30.29 "Hg15 mi
1:00 AM50 °FOvercast.12 mph82%30.29 "Hg15 mi
12:00 AM52 °FOvercast.8 mph77%30.29 "Hg15 mi
11:00 PM
Aug 21
52 °FOvercast.5 mph82%30.28 "Hg15 mi
10:00 PM52 °FOvercast.3 mph88%30.28 "Hg15 mi
9:00 PM54 °FOvercast.3 mph77%30.28 "Hg15 mi
8:00 PM54 °FOvercast.5 mph77%30.27 "Hg15 mi
7:00 PM55 °FOvercast.6 mph67%30.26 "Hg15 mi
6:00 PM57 °FMostly cloudy.6 mph59%30.25 "Hg15 mi
5:00 PM59 °FMore clouds than sun.7 mph55%30.24 "Hg15 mi
4:00 PM59 °FMore clouds than sun.5 mph55%30.24 "Hg15 mi
3:00 PM57 °FBroken clouds.5 mph59%30.25 "Hg15 mi
2:00 PM59 °FPartly sunny.8 mph55%30.24 "Hg15 mi
1:00 PM55 °FPartly sunny.8 mph63%30.24 "Hg15 mi
12:00 PM57 °FPartly sunny.10 mph59%30.24 "Hg15 mi
11:00 AM55 °FPartly sunny.6 mph67%30.23 "Hg12 mi
10:00 AM52 °FPartly sunny.8 mph77%30.23 "Hg10 mi
Weather by CustomWeather, © 2014

See weather overviewHow to use our weather pages